LUCH (OLYMP-K 1)

Last updated on Tue Jul 01 2025 00:02:46 GMT+0000 (Coordinated Universal Time)

1 40258U 14058A 25181.72326497 .00000155 00000+0 00000+0 0 9993 2 40258 0.9856 87.1027 0001935 33.2287 92.3807 1.00440167 39416
UTC large
Height (km)
Speed (km/s)
/
Latitude / Longitude
Inclination (degrees)
Orbital Period (minutes)
Azimuth
Elevation
Range (km)
Doppler Factor

Next 0 passes for location: London (51.5072 / 0.1276)

Sorry there are no passes over London.